{"data":{"norad_id":60306,"epoch":"2026-09-21T06:33:28.277280Z","epoch_age_seconds":118751,"freshness":"FRESH","line1":"1 60306U 24133F   26264.27324395 -.00000866  00000+0 -22854-5 0  9990","line2":"2 60306  53.1595 261.9983 0001354  86.7363 273.3810 15.69700214124454","mean_motion":15.69700214,"eccentricity":0.0001354,"inclination_deg":53.1595,"raan_deg":261.9983,"arg_perigee_deg":86.7363,"mean_anomaly_deg":273.381,"bstar":-2.2854e-6,"rev_number":12445,"period_min":91.737262131761,"perigee_km":358.84244380785,"apogee_km":360.66706489492,"semimajor_km":6737.8917543514,"source":"CELESTRAK","updated_at":"2026-09-22T09:00:49.197472Z"}}